Stations météo

réclame
Mon MeteoGroup
Lulea/Kallax, Suède (2186): Température de l'air & dewpoint: 15.06.2018 01:00:00 - 21.06.2018 01:00:00 (CEST)Lulea/Kallax, Suède (2186): Vitesse du vent & gusts: 15.06.2018 01:00:00 - 21.06.2018 01:00:00 (CEST)Lulea/Kallax, Suède (2186): Direction du vent: 15.06.2018 01:00:00 - 21.06.2018 01:00:00 (CEST)Lulea/Kallax, Suède (2186): reduced air pressure: 15.06.2018 01:00:00 - 21.06.2018 01:00:00 (CEST)Lulea/Kallax, Suède (2186): visibility: 15.06.2018 01:00:00 - 21.06.2018 01:00:00 (CEST)Lulea/Kallax, Suède (2186): Quantités de précipitations: 15.06.2018 01:00:00 - 21.06.2018 01:00:00 (CEST)
Date & Time tt [°C] td [°C] ff [km/h] ff [knt] fx [km/h] fx [knt] dd ppp [hPa] vv [km] rr [mm]
21.06.2018 01:00:00 - - - - - - - - - -
21.06.2018 00:00:00 11,4 3,7 5 3 14 8 W 999,7 10 0,0
20.06.2018 23:00:00 13,4 3,5 11 6 22 12 W 999,5 10 0,0
20.06.2018 22:00:00 14,7 3,8 9 5 18 10 W 999,2 10 0,0
20.06.2018 21:00:00 15,6 3,7 15 8 36 19 W 998,9 10 0,0
20.06.2018 20:00:00 16,4 2,8 21 11 36 19 W 998,6 10 0,0
20.06.2018 19:00:00 16,0 4,7 15 8 32 18 NNW 998,5 10 0,0
20.06.2018 18:00:00 17,2 3,1 21 11 43 23 W 998,4 10 0,0
20.06.2018 17:00:00 17,9 3,4 29 16 47 25 W 997,9 10 0,0
20.06.2018 16:00:00 17,6 3,1 21 11 36 19 WNW 997,7 10 0,0
20.06.2018 15:00:00 17,8 3,7 26 14 43 23 W 997,6 10 0,0
20.06.2018 14:00:00 17,5 3,4 29 16 54 29 W 997,4 10 0,0
20.06.2018 13:00:00 17,3 3,9 26 14 40 21 W 997,4 10 0,0
20.06.2018 12:00:00 16,5 3,9 28 15 43 23 WNW 997,0 10 0,0
20.06.2018 11:00:00 16,5 4,5 29 16 43 23 WNW 996,6 10 0,0
20.06.2018 10:00:00 15,3 5,2 24 13 47 25 W 996,0 10 0,0
20.06.2018 09:00:00 14,7 5,8 26 14 47 25 WNW 995,5 10 0,0
20.06.2018 08:00:00 13,4 5,3 29 16 43 23 WNW 995,0 10 0,0
20.06.2018 07:00:00 12,5 6,3 21 11 32 18 W 994,7 10 0,0
20.06.2018 06:00:00 11,0 6,1 21 11 40 21 W 994,4 10 0,0
20.06.2018 05:00:00 9,9 6,2 21 11 29 16 W 994,1 10 0,0
20.06.2018 04:00:00 8,9 6,0 16 9 25 14 W 993,8 10 0,0
20.06.2018 03:00:00 8,7 6,1 16 9 22 12 W 993,5 10 0,0
20.06.2018 02:00:00 8,6 6,7 11 6 22 12 W 993,0 10 0,0
20.06.2018 01:00:00 9,2 6,5 15 8 22 12 W 993,0 10 0,0
20.06.2018 00:00:00 9,3 6,6 16 9 25 14 W 992,5 10 0,0
19.06.2018 23:00:00 9,1 7,1 18 10 25 14 W 992,0 10 0,0
19.06.2018 22:00:00 9,2 7,1 21 11 29 16 W 991,2 10 0,0
19.06.2018 21:00:00 9,6 8,0 18 10 36 19 WNW 990,9 10 0,2
19.06.2018 20:00:00 10,3 9,8 9 5 14 8 WSW 990,4 10 0,1
19.06.2018 19:00:00 10,0 9,4 9 5 22 12 S 990,0 10 0,2
19.06.2018 18:00:00 10,2 9,8 14 8 29 16 SSE 989,6 12 2,0
19.06.2018 17:00:00 10,5 9,9 11 6 25 14 S 989,7 10 0,6
19.06.2018 16:00:00 10,5 9,9 13 7 25 14 S 990,2 10 0,6
19.06.2018 15:00:00 10,7 10,1 18 10 32 18 S 990,6 10 0,3
19.06.2018 14:00:00 11,2 10,6 21 11 32 18 SSE 991,3 5 0,3
19.06.2018 13:00:00 11,1 10,5 22 12 32 18 SSE 992,0 8 2,0
19.06.2018 12:00:00 10,8 10,2 26 14 36 19 SSE 992,9 5 2,0
19.06.2018 11:00:00 10,9 9,7 26 14 36 19 SSE 993,8 6 0,1
19.06.2018 10:00:00 11,7 9,6 24 13 36 19 SSE 994,8 10 0,0
19.06.2018 09:00:00 11,1 9,4 15 8 25 14 SSE 995,5 10 0,0
19.06.2018 08:00:00 10,9 9,2 16 9 25 14 SSE 996,4 10 0,0
19.06.2018 07:00:00 10,8 9,2 18 10 25 14 SSE 997,5 10 0,0
19.06.2018 06:00:00 10,4 9,2 16 9 25 14 S 998,2 10 0,0
19.06.2018 05:00:00 10,3 9,2 14 8 29 16 S 998,9 25 0,0
19.06.2018 04:00:00 10,3 9,4 18 10 29 16 S 999,6 21 0,0
19.06.2018 03:00:00 9,3 8,7 14 8 22 12 S 1000,4 12 0,0
19.06.2018 02:00:00 10,3 9,3 11 6 18 10 SSE 1000,9 30 0,0
19.06.2018 01:00:00 12,3 10,7 8 4 14 8 S 1001,2 10 0,0
19.06.2018 00:00:00 12,0 10,4 5 3 14 8 SSW 1001,7 10 0,0
18.06.2018 23:00:00 12,0 9,6 9 5 18 10 S 1001,9 10 0,0
18.06.2018 22:00:00 12,7 9,7 13 7 18 10 S 1001,9 10 0,0
18.06.2018 21:00:00 12,8 9,2 16 9 22 12 S 1001,8 10 0,0
18.06.2018 20:00:00 13,2 9,4 13 7 25 14 SSW 1001,7 10 0,0
18.06.2018 19:00:00 15,0 9,8 15 8 29 16 SW 1001,6 10 0,0
18.06.2018 18:00:00 13,9 10,3 13 7 32 18 SSW 1001,5 10 0,0
18.06.2018 17:00:00 12,8 10,7 22 12 32 18 S 1001,3 10 0,0
18.06.2018 16:00:00 11,8 10,5 22 12 40 21 S 1001,6 20 0,0
18.06.2018 15:00:00 11,3 10,2 28 15 43 23 S 1001,9 10 0,0
18.06.2018 14:00:00 11,1 10,3 26 14 40 21 S 1002,0 4,0 0,0
18.06.2018 13:00:00 11,9 10,8 22 12 36 19 S 1002,5 10 0,0
18.06.2018 12:00:00 12,1 11,3 26 14 32 18 SSE 1002,9 10 2,0
18.06.2018 11:00:00 12,7 12,2 18 10 25 14 ESE 1003,0 3,5 4,0
18.06.2018 10:00:00 12,5 11,7 11 6 18 10 E 1003,9 10 5,0
18.06.2018 09:00:00 12,5 11,7 11 6 14 8 SSE 1005,2 7 6,0
18.06.2018 08:00:00 12,5 10,9 4 2 14 8 - 1005,0 10 1,0
18.06.2018 07:00:00 12,1 9,8 5 3 22 12 SSE 1006,4 10 0,3
18.06.2018 06:00:00 12,3 9,7 13 7 40 21 SSW 1007,4 10 0,6
18.06.2018 05:00:00 14,9 7,0 11 6 25 14 E 1007,0 10 0,0
18.06.2018 04:00:00 15,3 6,6 11 6 22 12 E 1008,2 10 0,0
18.06.2018 03:00:00 14,4 7,2 8 4 14 8 ENE 1009,6 10 0,0
18.06.2018 02:00:00 14,1 6,5 5 3 11 6 NNE 1010,9 10 0,0
18.06.2018 01:00:00 14,0 5,1 2 1 11 6 - 1012,0 10 0,0
18.06.2018 00:00:00 14,4 5,2 4 2 7 4 ENE 1013,0 10 0,0
17.06.2018 23:00:00 15,6 5,2 2 1 7 4 - 1013,7 10 0,0
17.06.2018 22:00:00 16,7 2,7 4 2 7 4 E 1014,3 10 0,0
17.06.2018 21:00:00 17,9 2,6 4 2 7 4 SE 1015,0 10 0,0
17.06.2018 20:00:00 18,5 1,0 5 3 14 8 SE 1015,5 10 0,0
17.06.2018 19:00:00 18,5 2,3 9 5 14 8 SSE 1016,1 10 0,0
17.06.2018 18:00:00 18,6 2,0 15 8 18 10 SSE 1016,7 10 0,0
17.06.2018 17:00:00 18,5 3,1 15 8 22 12 SSE 1017,1 10 0,0
17.06.2018 16:00:00 18,8 2,6 15 8 22 12 SSE 1017,4 10 0,0
17.06.2018 15:00:00 18,5 2,7 13 7 22 12 SSE 1017,7 10 0,0
17.06.2018 14:00:00 18,7 2,9 16 9 22 12 SSE 1018,2 10 0,0
17.06.2018 13:00:00 18,1 2,4 16 9 22 12 SSE 1018,4 10 0,0
17.06.2018 12:00:00 17,5 2,6 16 9 22 12 SSE 1018,7 10 0,0
17.06.2018 11:00:00 18,1 3,6 13 7 22 12 SSE 1018,7 10 0,0
17.06.2018 10:00:00 17,7 3,6 11 6 18 10 SSE 1018,7 10 0,0
17.06.2018 09:00:00 17,1 4,1 5 3 14 8 NE 1018,7 10 0,0
17.06.2018 08:00:00 15,5 3,9 8 4 14 8 N 1018,8 10 0,0
17.06.2018 07:00:00 14,9 4,0 9 5 18 10 N 1018,7 10 0,0
17.06.2018 06:00:00 13,6 5,0 9 5 14 8 NNW 1018,5 10 0,0
17.06.2018 05:00:00 12,3 5,9 5 3 7 4 NW 1018,0 10 0,0
17.06.2018 04:00:00 10,6 5,6 5 3 11 6 NNW 1017,5 10 0,0
17.06.2018 03:00:00 10,9 5,8 9 5 11 6 NW 1016,9 10 0,0
17.06.2018 02:00:00 10,7 6,4 4 2 7 4 WNW 1016,5 10 0,0
17.06.2018 01:00:00 10,6 7,3 8 4 11 6 NW 1016,2 10 0,0
17.06.2018 00:00:00 11,8 8,6 9 5 11 6 SW 1015,8 10 0,0
16.06.2018 23:00:00 12,2 8,5 5 3 14 8 SW 1015,4 10 0,0
16.06.2018 22:00:00 12,9 8,0 11 6 18 10 SSW 1014,8 10 0,0
16.06.2018 21:00:00 12,7 8,2 13 7 22 12 S 1014,4 10 0,0
16.06.2018 20:00:00 14,1 7,2 13 7 22 12 S 1013,9 10 0,0
16.06.2018 19:00:00 16,8 7,2 8 4 14 8 WSW 1013,3 10 0,0
16.06.2018 18:00:00 17,5 6,4 4 2 18 10 - 1013,2 10 0,0
16.06.2018 17:00:00 14,6 8,8 21 11 36 19 WNW 1013,8 10 0,0
16.06.2018 16:00:00 15,0 8,2 16 9 22 12 SSW 1013,2 10 0,4
16.06.2018 15:00:00 15,9 8,1 13 7 22 12 S 1012,5 10 0,0
16.06.2018 14:00:00 13,6 8,6 11 6 22 12 SE 1012,5 10 0,0
16.06.2018 13:00:00 13,9 9,5 16 9 22 12 SSE 1012,5 10 0,0
16.06.2018 12:00:00 15,3 9,4 15 8 18 10 SE 1012,3 10 0,0
16.06.2018 11:00:00 16,3 8,5 11 6 18 10 SSE 1012,2 10 0,0
16.06.2018 10:00:00 14,5 9,1 9 5 22 12 SE 1012,0 10 0,0
16.06.2018 09:00:00 13,4 9,1 13 7 22 12 SSE 1012,1 10 0,0
16.06.2018 08:00:00 13,3 9,2 13 7 22 12 SSE 1011,9 10 0,0
16.06.2018 07:00:00 14,3 7,6 4 2 7 4 NE 1011,4 35 0,0
16.06.2018 06:00:00 13,2 9,3 4 2 4 2 SE 1011,0 40 0,0
16.06.2018 05:00:00 11,3 8,9 0 0 4 2 N 1011,0 45 0,0
16.06.2018 04:00:00 9,6 8,3 0 0 32 18 N 1010,8 45 0,0
16.06.2018 03:00:00 9,3 8,2 18 10 32 18 W 1010,8 45 0,0
16.06.2018 02:00:00 9,0 8,5 11 6 14 8 S 1009,5 45 0,0
16.06.2018 01:00:00 7,8 7,3 0 0 14 8 N 1008,8 0,2 0,0
16.06.2018 00:00:00 9,3 8,2 2 1 14 8 - 1008,9 10 0,0
15.06.2018 23:00:00 10,5 8,6 5 3 25 14 SSW 1007,8 10 0,7
15.06.2018 22:00:00 12,1 8,2 9 5 29 16 SW 1008,1 10 0,0
15.06.2018 21:00:00 12,9 8,0 21 11 36 19 W 1006,2 10 0,6
15.06.2018 20:00:00 14,2 8,6 15 8 32 18 S 1005,4 10 0,1
15.06.2018 19:00:00 12,9 9,3 11 6 22 12 SSW 1005,3 10 0,0
15.06.2018 18:00:00 11,9 8,6 21 11 25 14 S 1004,4 10 0,0
15.06.2018 17:00:00 16,4 10,5 15 8 32 18 S 1003,6 10 0,0
15.06.2018 16:00:00 13,3 9,0 26 14 54 29 SSW 1003,3 10 0,0
15.06.2018 15:00:00 13,8 9,0 31 17 50 27 S 1002,0 10 0,0
15.06.2018 14:00:00 13,4 9,6 34 18 50 27 S 1001,9 10 0,0
15.06.2018 13:00:00 13,5 9,7 31 17 50 27 S 1001,6 10 0,0
15.06.2018 12:00:00 13,5 10,3 34 18 58 31 S 1001,5 10 0,0
15.06.2018 11:00:00 12,1 9,8 28 15 50 27 S 1001,4 10 0,0
15.06.2018 10:00:00 11,7 9,6 29 16 47 25 S 1001,3 10 0,0
15.06.2018 09:00:00 11,4 9,3 24 13 43 23 S 1001,1 10 0,0
15.06.2018 08:00:00 10,9 9,3 28 15 43 23 S 1001,0 10 0,6
15.06.2018 07:00:00 11,4 9,3 26 14 40 21 S 1001,1 10 0,0
15.06.2018 06:00:00 11,1 9,0 26 14 40 21 S 1001,2 10 0,0
15.06.2018 05:00:00 10,5 8,9 26 14 40 21 S 1001,7 10 0,2
15.06.2018 04:00:00 11,2 8,1 26 14 43 23 S 1001,9 10 0,0
15.06.2018 03:00:00 12,1 7,8 24 13 47 25 S 1001,7 10 0,0
15.06.2018 02:00:00 13,2 7,3 26 14 43 23 S 1002,0 10 0,0
15.06.2018 01:00:00 12,6 7,7 25 14 - - SSE 1002,6 45 0,0

tt = Température de l'air
td = dewpoint
ff = Vitesse du vent
fx = gusts
dd = Direction du vent
ppp = reduced air pressure
vv = visibility
rr = Quantités de précipitations

stations d'obs. à proximité